AirNav   Air Wisconsin pilot careers
 
 1161 users online  

6Y9 Prickett-Grooms Field Airport
Sidnaw, Michigan, USA

GOING TO SIDNAW?


FAA INFORMATION EFFECTIVE 11 OCTOBER 2018

Location

FAA Identifier: 6Y9
Lat/Long: 46-30-31.1500N / 088-42-21.0500W
46-30.519167N / 088-42.350833W
46.5086528 / -88.7058472
(estimated)
Elevation: 1372 ft. / 418.2 m (surveyed)
Variation: 02W (1985)
From city: 1 mile NE of SIDNAW, MI
Time zone: UTC -4 (UTC -5 during Standard Time)
Zip code: 49970

Airport Operations

Airport use: Open to the public
Activation date: 04/1940
Control tower: no
ARTCC: MINNEAPOLIS CENTER
FSS: GREEN BAY FLIGHT SERVICE STATION
NOTAMs facility: GRB (NOTAM-D service available)
Attendance: UNATNDD
Wind indicator: yes
Segmented circle: no

Airport Communications

CTAF: 122.9

Nearby radio navigation aids

NDB name  Hdg/Dist  Freq  Var  ID
WATERSMEET063/27.140702WRXW .-. -..- .--

Airport Services

Parking: tiedowns
Airframe service: NONE
Powerplant service: NONE
Bottled oxygen: NONE
Bulk oxygen: NONE

Runway Information

Runway 10/28

Dimensions: 2600 x 100 ft. / 792 x 30 m
Surface: turf, in good condition
SOFT WHEN WET; CALL 248-761-5615 TO VFY COND.
Runway edge markings: 10/28 MKD WITH 3 FT YELLOW CONES.
Gradient: E
RUNWAY 10  RUNWAY 28
Latitude: 46-30.553333N46-30.485000N
Longitude: 088-42.656667W088-42.045000W
Elevation: 1362.0 ft.1377.0 ft.
Gradient: 0.6% UP
Traffic pattern: leftleft
Displaced threshold: 400 ft.400 ft.
Runway end identifier lights: nono
Obstructions: 56 ft. trees, 732 ft. from runway, 75 ft. left of centerline, 13:1 slope to clear
APCH SLOPE TO THE DSPCD THLD 20:1.
20 ft. trees, 60 ft. both sides of centerline
APCH SLOPE TO THE DSPCD THLD 20:1.

Airport Ownership and Management from official FAA records

Ownership: Privately-owned
Owner: SHCAHA
7370 BROADMOOR AVE. S.E.
CALEDONIA, MI 49316
Phone (248) 761-5615
SOUTHERN HOUGHTON COUNTY AIRPORT & HERITAGE ASSOCIATION
Manager: BRAD FREDERICK
7370 BROADMOOR AVE. S.E.
CALEDONIA, MI 49316
Phone (248) 761-5615

Airport Operational Statistics

Aircraft operations: 150/year *
100% transient general aviation
* for 12-month period ending 31 December 2017

Additional Remarks

RYS NOT PLOWED. ARPT CLSD NOV-MAY 15 & WHEN SNOW COVERED EXCEPT FOR SKI EQUIPPED ACFT.
CAMPING & CABINS ADJACENT, PH 906-355-2480.
PILOT SHELTER ACCESS: 1200
DEER & BIRDS ON & INVOF ARPT.
ARPT IS NEAR MIL.TNG RTS VR 1639 & IR 609 & UNDERLIES BIG BEAR MOA. LOW LEVEL, HIGH SPEED MIL ACFT OPER IN VICINITY.

Instrument Procedures

There are no published instrument procedures at 6Y9.

Some nearby airports with instrument procedures:

KLNL - Kings Land O' Lakes Airport (30 nm SW)
KOGM - Ontonagon County Airport - Schuster Field (34 nm NW)
KCMX - Houghton County Memorial Airport (41 nm N)
KEGV - Eagle River Union Airport (42 nm SW)
KIMT - Ford Airport (48 nm SE)
 
Loc | Ops | Rwys | IFR | FBO | Links
Com | Nav | Svcs | Stats | Notes


 
Area around 6Y9 (Prickett-Grooms Field Airport)
 
Road maps at: MapQuest Bing Google
 
Aerial photo
WARNING: Photo may not be current or correct
Aerial photo of 6Y9 (Prickett-Grooms Field Airport)
from the NW

Do you have a better or more recent aerial photo of Prickett-Grooms Field Airport that you would like to share? If so, please send us your photo.

 
Sectional chart

 
Airport distance calculator
Flying to Prickett-Grooms Field Airport? Find the distance to fly.

From to 6Y9

Sunrise and sunset
Times for 15-Oct-2018
 Local
(UTC-4)
 Zulu
(UTC)
Morning civil twilight07:4311:43
Sunrise08:1312:13
Sunset19:0823:08
Evening civil twilight19:3823:38

Current date and time
Zulu (UTC)  15-Oct-2018 22:25:14
Local (UTC-4)  15-Oct-2018 18:25:14
 
METAR
KLNL 
30nm SW 
151955Z AUTO 28010G17KT 10SM OVC031 01/M04 A3002 RMK AO2 T00101042
KCMX 
41nm N 
152204Z AUTO 27014G23KT 10SM OVC032 03/M03 A2995 RMK AO2 T00281033 $
KEGV 
42nm SW 
151955Z AUTO 28011G17KT 10SM OVC036 01/M05 A3001 RMK AO2 T00111053
KIMT 
48nm SE 
152154Z AUTO 25010G17KT 10SM OVC043 03/M03 A3003 RMK AO2 SLP184 T00281028
TAF
KCMX 
41nm N 
151728Z 1518/1618 29017G26KT P6SM VCSH SCT015 OVC025 TEMPO 1518/1519 2SM -SHSN BKN015 FM152300 26013KT P6SM BKN030 FM160100 26012KT P6SM SCT035 FM160300 24011KT P6SM BKN090 FM160600 22011KT P6SM VCSH OVC040 WS015/25040KT FM161000 24014KT P6SM VCSH BKN030 FM161200 27018G30KT P6SM BKN025
NOTAMs
Click for the latest NOTAMs
NOTAMs are issued by the DoD/FAA and will open in a separate window not controlled by AirNav.

 

 
 

Would you like to see your business listed on this page?

 If your business provides an interesting product or service to pilots, flight crews, aircraft, or users of the Prickett-Grooms Field Airport, you should consider listing it here.  To start the listing process, click on the button below
 
Add a business
 

Other Pages about Prickett-Grooms Field Airport

6y9.sidnaw.org
Page from the Michigan Airport Directory (PDF)
 
Update a link
 
Copyright © AirNav, LLC. All rights reserved. Privacy Policy  Contact